Regional Weather Roundup
Issued by NWS

Home | Current Version | Previous Version | Graphics & Text | Print | Product List | Glossary On
Versions: 1 2 3 4 5 6 7 8 9 10 11 12 13 14 15 16 17 18 19 20 21 22 23 24 25 26 27 28
000
ASUS45 KBOU 222210
RWRCO

WEATHER ROUNDUP FOR COLORADO
NATIONAL WEATHER SERVICE DENVER/BOULDER CO
300 PM MST WED NOV 22 2017

NOTE: "FAIR" INDICATES FEW OR NO CLOUDS BELOW 12000 FEET WITH NO
SIGNIFICANT WEATHER AND/OR OBSTRUCTIONS TO VISIBILITY.

COZ001>005-013-030-031-222300-
...NORTHWEST COLORADO...

CITY           SKY/WX    TMP DP  RH WIND       PRES   REMARKS
CRAIG          CLOUDY    53  38  56 NE9       30.41R
HAYDEN         CLOUDY    46  37  71 SE7       30.44S
MEEKER         FAIR      55  37  50 CALM      30.42F
RABBIT EARS PA FOG      N/A N/A N/A W9G17     30.53R VSB 1/4
STEAMBOAT SPGS CLOUDY    40  36  88 CALM      30.44S
WALDEN         CLOUDY    43  32  65 SW9       30.46R
$$

COZ006>008-011-222300-
...WEST CENTRAL VALLEYS...

CITY           SKY/WX    TMP DP  RH WIND       PRES   REMARKS
GRAND JUNCTION FAIR      62  33  33 SE3       30.38F
MONTROSE       FAIR      59  32  36 NW5       30.43S
EAGLE          CLOUDY    44  32  62 CALM      30.49S
RIFLE          CLOUDY    55  34  45 CALM      30.41F
DELTA          FAIR      62  31  30 SW3       30.40F
NUCLA          FAIR      63  32  31 NW9       30.42S
$$

COZ017>023-064>068-222300-
...SOUTHWEST COLORADO...

CITY           SKY/WX    TMP DP  RH WIND       PRES   REMARKS
DURANGO        FAIR      59  26  28 CALM      30.35F
CORTEZ         FAIR      62  30  29 W18G28    30.33F
PAGOSA SPRINGS FAIR      59  19  21 SW5       30.39S
TELLURIDE      FAIR      54  30  39 N5        30.51S
WOLF CREEK PAS NOT AVBL
$$

COZ009-010-012-014-032>034-037-058>063-222300-
...CENTRAL COLORADO...

CITY           SKY/WX    TMP DP  RH WIND       PRES   REMARKS
ASPEN          CLOUDY    47  32  56 CALM      30.47F
BUENA VISTA    FAIR      52  32  46 NW20G30   30.40R
COPPER MTN     SNOW      34  32  93 MISG      30.59S VSB<1/4
BERTHOUD PASS  CLOUDY    28  18  64 NW33G49   30.53S WCI  12
COTTONWOOD PAS FAIR      52  32  46 W12G24    30.48R
GUNNISON       FAIR      52  32  46 CALM      30.45F
KREMMLING      CLOUDY    46  36  66 CALM      30.48R
LEADVILLE      CLOUDY    39  30  70 NW5       30.51F
MONARCH PASS   FAIR      34  28  80 SW9       30.69S WCI  26
SALIDA         FAIR      60  30  31 CALM      30.44F
SUNLIGHT       CLOUDY    34  32  93 W3        30.62S
WILKERSON PASS FAIR      36  28  75 N17G36    30.53S
$$

COZ069>075-222300-
...SAN LUIS VALLEY/SANGRE DE CRISTO MOUNTAINS...

CITY           SKY/WX    TMP DP  RH WIND       PRES   REMARKS
ALAMOSA        FAIR      59  27  29 N9        30.37S
DEL NORTE      FAIR      61  30  31 N16G22    30.40S
LA VETA PASS   FAIR      45  27  49 MISG        N/A
SAGUACHE       FAIR      55  30  38 NW20G26   30.40S
$$

COZ035-036-038>040-222300-
...NORTHERN COLORADO FRONT RANGE...

CITY           SKY/WX    TMP DP  RH WIND       PRES   REMARKS
DENVER INTL AP PTSUNNY   68  33  27 NW8       30.22R
DMNS CITY PARK   N/A     66  32  27 W5G17     30.21S
AURORA         PTSUNNY   65  33  30 NW14      30.24R
FRONT RANGE AP PTSUNNY   68  34  28 NW7       30.23R
ERIE MUNI ARPT FAIR      67  32  27 W18G26    30.26S
BOULDER MUN AP FAIR      63  34  34 W12G18    30.22R
CENTENNIAL     PTSUNNY   65  35  33 NW16G22   30.24R
BROOMFIELD     PTSUNNY   64  34  32 W17G32    30.23S
FORT COLLINS   FAIR      66  38  35 S7        30.20S
LONGMONT       FAIR      70  34  26 W9        30.21S
$$

COZ041-046-047-076>085-087-088-222300-
...PIKES PEAK/PALMER DIVIDE AND SOUTHERN FOOTHILLS...

CITY           SKY/WX    TMP DP  RH WIND       PRES   REMARKS
COLO. SPRINGS  PTSUNNY   66  26  22 S8        30.26S
A. F. ACADEMY  FAIR      64  26  23 S3        30.26S
SCHRIEVER AFB  FAIR      64  22  19 SW8       30.26S
CHEYENNE MTN   FAIR      58  25  28 CALM      30.25R
ELLICOTT         N/A    N/A N/A N/A VRB3      30.24S
FALCON         FAIR      65  27  23 NW9       30.30R
FORT CARSON    FAIR      66  24  20 S6        30.23S
LIMON          FAIR      67  31  26 NW12      30.22R
MONUMENT HILL  FAIR      59  32  36 N7        30.31R
CANON CITY     FAIR      72  34  25 NW9G18    30.22R
WALSENBURG     FAIR      68  30  24 CALM      30.26F
TRINIDAD       FAIR      66  26  22 W5        30.25S
$$

COZ042>045-048>051-090-091-222300-
...NORTHEAST COLORADO...

CITY           SKY/WX    TMP DP  RH WIND       PRES   REMARKS
GREELEY ARPT   NOT AVBL
AKRON          FAIR      67  34  29 W16       30.16S
BURLINGTON     FAIR      69  35  28 NW17G24   30.17R
WRAY           NOT AVBL
YUMA           FAIR      68  36  30 NW12      30.13F
STERLING       FAIR      70  37  30 N21       30.12S
HOLYOKE        FAIR      72  34  25 N14       30.12R
FORT MORGAN    FAIR      68  32  26 W15G23    30.18R
$$

COZ086-089-092>099-222300-
...SOUTHEAST COLORADO...

CITY           SKY/WX    TMP DP  RH WIND       PRES   REMARKS
PUEBLO         FAIR      68  29  23 SE7       30.19F
LA JUNTA       FAIR      68  30  24 SW8       30.18F
LAMAR          FAIR      70  28  21 VRB6      30.15F
SPRINGFIELD      N/A     68  28  22 NE6       30.20S
$$




USA.gov is the U.S. government's official web portal to all federal, state and local government web resources and services.